Weather History for CWJU - January, 2013

Change the Weather History Date:

Friday, January 18, 2013

  Actual Average Record
Temperature  
Mean Temperature 38 °F -  
Max Temperature 41 °F - - ()
Min Temperature 36 °F - - ()
Degree Days  
Heating Degree Days 26    
Moisture  
Dew Point 35 °F    
Average Humidity 85    
Maximum Humidity 97    
Minimum Humidity 70    
Precipitation  
Precipitation 0.00 in - - ()
Sea Level Pressure  
Sea Level Pressure 30.14 in    
Wind  
Wind Speed 11 mph ()    
Max Wind Speed 20 mph    
Max Gust Speed 18 mph    
T = Trace of Precipitation, MM = Missing Value Source: Averaged Metar Reports

Daily Weather History Graph

Daily Weather History Graph

Search for Another Location

Airport or City:

Trip Planner

Search our weather history database for the weather conditions in past years. The results will help you decide how hot, cold, wet, or windy it might be!

Date:

Astronomy

Jan. 18, 2013 Rise Set
Actual Time 9:00 AM PST 5:05 PM PST
Civil Twilight 8:18 AM PST 5:47 PM PST
Nautical Twilight 7:34 AM PST 6:31 PM PST
Astronomical Twilight 6:51 AM PST 7:14 PM PST
Moon 11:23 AM PST (1/18) 1:18 AM PST (1/18)
Length of Visible Light 9h 28m
Length of Day
8h 05m
Waxing Crescent, 48% of the Moon is Illuminated
Jan 18
Waxing Crescent
Jan 18
First Quarter
Jan 26
Full
Feb 3
Last Quarter
Feb 9
New

Hourly Weather History & Observations

Time (PST) Temp. Windchill Dew Point Humidity Pressure Visibility Wind Dir Wind Speed Gust Speed Precip Events Conditions
12:00 AM 41.2 °F 32.1 °F 40.5 °F 97% 29.99 in - WNW 19.6 mph - N/A   Unknown
1:00 AM 40.3 °F 31.6 °F 39.4 °F 97% 30.00 in - NW 17.3 mph - N/A   Unknown
2:00 AM 40.1 °F 32.0 °F 39.0 °F 96% 30.03 in - NW 15.0 mph - N/A   Unknown
3:00 AM 39.7 °F 31.9 °F 38.7 °F 96% 30.05 in - WNW 13.8 mph - N/A   Unknown
4:00 AM 39 °F - 38 °F 93% 30.07 in - NW 12.7 mph - -  
4:00 AM 39.2 °F 31.6 °F 37.8 °F 95% 30.07 in - NW 12.7 mph 18.4 mph N/A   Unknown
5:00 AM 39.0 °F 31.4 °F 36.0 °F 89% 30.06 in - WNW 12.7 mph - N/A   Unknown
6:00 AM 39.2 °F 30.5 °F 37.4 °F 93% 30.08 in - WNW 16.1 mph - N/A   Unknown
7:00 AM 39.6 °F 32.1 °F 36.5 °F 89% 30.10 in - NW 12.7 mph - N/A   Unknown
8:00 AM 38.5 °F 29.9 °F 35.2 °F 88% 30.11 in - NW 15.0 mph - N/A   Unknown
9:00 AM 38.1 °F 31.2 °F 34.0 °F 85% 30.14 in - WNW 10.4 mph - N/A   Unknown
10:00 AM 39 °F - 33 °F 70% 30.17 in - NNW 12.7 mph - -  
10:00 AM 39.0 °F 31.4 °F 31.5 °F 74% 30.17 in - NNW 12.7 mph - N/A   Unknown
11:00 AM 39.2 °F 31.6 °F 31.8 °F 75% 30.20 in - NW 12.7 mph - N/A   Unknown
1:00 PM 39.6 °F 37.4 °F 31.8 °F 74% 30.21 in - WNW 3.5 mph - N/A   Unknown
2:00 PM 39.7 °F - 32.0 °F 74% 30.20 in - SE 1.2 mph - N/A   Unknown
3:00 PM 39.0 °F - 31.6 °F 75% 30.20 in - SSE 2.3 mph - N/A   Unknown
4:00 PM 38 °F - 33 °F 74% 30.20 in - SSE 3.5 mph - -  
4:00 PM 38.3 °F 35.9 °F 31.5 °F 76% 30.20 in - SSE 3.5 mph - N/A   Unknown
5:00 PM 36.5 °F - 31.5 °F 82% 30.20 in - SSW 2.3 mph - N/A   Unknown
6:00 PM 37.0 °F 32.4 °F 33.3 °F 86% 30.20 in - SSE 5.8 mph - N/A   Unknown
7:00 PM 37.0 °F 31.0 °F 33.8 °F 88% 30.20 in - SSE 8.1 mph - N/A   Unknown
8:00 PM 37.2 °F 31.9 °F 34.0 °F 88% 30.20 in - SE 6.9 mph - N/A   Unknown
9:00 PM 37.2 °F 31.2 °F 33.8 °F 87% 30.19 in - SE 8.1 mph - N/A   Unknown
10:00 PM 38 °F - 34 °F 81% 30.20 in - SSE 8.1 mph - -  
10:00 PM 37.6 °F 31.6 °F 34.3 °F 88% 30.20 in - SSE 8.1 mph - N/A   Unknown
11:00 PM 38.1 °F 32.3 °F 35.4 °F 90% 30.20 in - SSE 8.1 mph - N/A   Unknown